FREGAT R/B (44553 NORAD) Tracking and Keplerian Element Data
This shows tracking and keplerian element data for the satellite.
Feedback or suggestion? Click here.
Element | Value |
Catalog | 44553 |
Name | FREGAT R/B |
Epoch Orbit | 56 |
Epoch Day | 297.25272347 |
Epoch Year | 2019 |
RAAN | 67.8585 |
Inclination | 63.853 |
Eccentricity | 0.6974856 |
Argument of Perigee | 269.9181 |
Mean Anonmoly | 81.5557 |
Mean Motion | 2.01508393 |
Decay Rate | 3.38E-06 |
L1 | 1 44553U 19065B 19297.25272347 .00000338 00000-0 00000+0 0 9995 |
L2 | 2 44553 63.8530 67.8585 6974856 269.9181 81.5557 2.01508393 561 |
Live tracking and technical data element details for FREGAT R/B (NORAD 44553). FREGAT R/B can be tracked NOW for your location showing map with azimuth and elevation plus other details from your city location.
Track the satellite on the map from your city or location and see movement details for azimuth, elevation, latitude, longitude, range, height, and movement on the map or in text.
IsCatalogInMostPopularTable: catalog: 44553, numindb: 21
Update: records affected: 1
GetName: 44553 FREGAT R/B
Hit Count: updated at: Thu, 05 Dec 2019 17:54:12 GMT